Tracking 19170 objects as of 23-May-2018
HD Live streaming from Space Station
objects crossing your sky now

TERRIERS

Track TERRIERS now!
10-day predictions
TERRIERS is classified as:


NORAD ID: 25735
Int'l Code: 1999-026A
Perigee: 430.5 km
Apogee: 435.9 km
Inclination: 97.2 °
Period: 93.1 minutes
Semi major axis: 6804 km
RCS: 0.4968 m2 (medium)
Launch date: May 18, 1999
Source: United States (US)
Launch site: Pegasus launched from Western Range Air Space (WRAS)
aabbcc
Your satellite tracking list
Your tracking list is empty




NASA's NSSDC Master Catalog

Two Line Element Set (TLE):
1 25735U 99026A   18142.90193222 +.00001326 +00000-0 +28206-4 0  9996
2 25735 097.2134 311.1851 0003957 188.2999 171.8186 15.46802379058729
Source of the keplerian elements: AFSPC